Location: Christian Reformed Church
(43.0975°N, 93.8113°W)
Time: 18:45:51
(UTC+00:00)

Meteor 1-25 Rocket - Pass Details

Date: 21 March 2026
Orbit: 836 x 889 km, 81.2° (Epoch: 14 April)

Event Time Altitude Azimuth Distance (km) Brightness Sun altitude
Rises 11:05:08 0° 347° (NNW) 3,485 7.4 -13.7°
Reaches altitude 10° 11:07:35 10° 345° (NNW) 2,549 6.7 -13.3°
Maximum altitude 11:13:21 68° 264° (W) 953 4.2 -12.3°
Drops below altitude 10° 11:19:07 10° 182° (S) 2,547 6.6 -11.3°
Sets 11:21:34 0° 180° (S) 3,482 7.3 -10.8°
